Baku, Azerbaijan

1:56 PM +04 on December 15, 2018 (GMT +0400)
Bina

Weather History for UBBB - March, 2018

Change the Weather History Date:

Saturday, March 31, 2018

  Actual Average (WUND) Record (WUND)
Temperature  
Mean Temperature 44 °F -  
Max Temperature 48 °F - - (-1)
Min Temperature 39 °F - - (-1)
Degree Days  
Heating Degree Days 22    
Moisture  
Dew Point 38 °F    
Average Humidity 81    
Maximum Humidity 93    
Minimum Humidity 62    
Precipitation  
Precipitation 0.01 in - - ()
Sea Level Pressure  
Sea Level Pressure 30.30 in    
Wind  
Wind Speed 23 mph ()    
Max Wind Speed 40 mph    
Max Gust Speed 48 mph    
Visibility 6.2 miles    
Events Rain    
Averages and records for this station are not official NWS values.
T = Trace of Precipitation, MM = Missing Value Source: Averaged Metar Reports

Daily Weather History Graph

Daily Weather History Graph

Search for Another Location

Airport or City:

Astronomy

Mar. 31, 2018 Rise Set
Actual Time 6:25 AM +04 7:02 PM +04
Civil Twilight 5:58 AM +04 7:30 PM +04
Nautical Twilight 5:25 AM +04 8:02 PM +04
Astronomical Twilight 4:52 AM +04 8:36 PM +04
Moon 6:59 PM +04 (3/31) 6:35 AM +04 (3/31)
Length of Visible Light 13h 32m
Length of Day
12h 37m
Full, 100% of the Moon is Illuminated
Mar 31
Full
Mar 31
Full
Apr 8
Last Quarter
Apr 16
New
Apr 23
First Quarter

Hourly Weather History & Observations

Time (+04) Temp. Windchill Dew Point Humidity Pressure Visibility Wind Dir Wind Speed Gust Speed Precip Events Conditions
12:00 AM 41.0 °F 29.1 °F 37.4 °F 87% 30.09 in 6.2 mi NNW 34.5 mph 46.0 mph N/A   Overcast
12:30 AM 41.0 °F 29.0 °F 37.4 °F 87% 30.09 in 6.2 mi NNW 35.7 mph 47.2 mph N/A   Overcast
1:00 AM 40 °F - 37 °F 83% 30.12 in 6 mi NW 40.3 mph - -   Overcast
1:00 AM 39.2 °F 26.6 °F 37.4 °F 93% 30.09 in 6.2 mi NNW 34.5 mph 46.0 mph N/A   Overcast
1:30 AM 41.0 °F 28.8 °F 37.4 °F 87% 30.09 in 6.2 mi NNW 36.8 mph 48.3 mph N/A   Overcast
2:00 AM 41.0 °F 29.8 °F 37.4 °F 87% 30.12 in 6.2 mi NNW 29.9 mph 41.4 mph N/A   Overcast
2:30 AM 41.0 °F 29.3 °F 37.4 °F 87% 30.12 in 6.2 mi NNW 33.4 mph 44.9 mph N/A   Overcast
3:00 AM 41.0 °F 29.5 °F 37.4 °F 87% 30.12 in 6.2 mi NNW 32.2 mph 43.7 mph N/A   Overcast
3:30 AM 41.0 °F 29.3 °F 37.4 °F 87% 30.12 in 6.2 mi NNW 33.4 mph 44.9 mph N/A   Overcast
4:00 AM 42 °F - 36 °F 72% 30.17 in 6 mi WNW 33.6 mph - -   Overcast
4:00 AM 42.8 °F 32.1 °F 37.4 °F 81% 30.15 in 6.2 mi NNW 31.1 mph 42.6 mph N/A   Overcast
4:30 AM 42.8 °F 32.7 °F 37.4 °F 81% 30.18 in 6.2 mi NNW 27.6 mph 39.1 mph N/A   Overcast
5:00 AM 42.8 °F 32.9 °F 37.4 °F 81% 30.18 in 6.2 mi NNW 26.5 mph 38.0 mph N/A   Overcast
5:30 AM 42.8 °F 33.1 °F 37.4 °F 81% 30.21 in 6.2 mi NNW 25.3 mph 36.8 mph N/A   Overcast
6:00 AM 42.8 °F 32.5 °F 37.4 °F 81% 30.21 in 6.2 mi NNW 28.8 mph 40.3 mph N/A   Overcast
6:30 AM 41.0 °F 30.7 °F 39.2 °F 93% 30.21 in 6.2 mi NNW 25.3 mph 36.8 mph N/A Rain Light Rain
7:00 AM 42 °F - 38 °F 79% 30.25 in 6 mi WNW 33.6 mph - -   Partly Cloudy
7:00 AM 42.8 °F 32.9 °F 39.2 °F 87% 30.24 in 6.2 mi NNW 26.5 mph 38.0 mph N/A Rain Light Rain
7:30 AM 42.8 °F 32.3 °F 39.2 °F 87% 30.27 in 6.2 mi NNW 29.9 mph 41.4 mph N/A Rain Light Rain
8:00 AM 42.8 °F 32.7 °F 39.2 °F 87% 30.27 in 6.2 mi NNW 27.6 mph 39.1 mph N/A Rain Light Rain
8:30 AM 42.8 °F 32.5 °F 37.4 °F 81% 30.30 in 6.2 mi NNW 28.8 mph 40.3 mph N/A Rain Light Rain
9:00 AM 42.8 °F 33.1 °F 39.2 °F 87% 30.30 in 6.2 mi NNW 25.3 mph 36.8 mph N/A   Overcast
9:30 AM 44.6 °F 35.1 °F 39.2 °F 81% 30.33 in 6.2 mi NNW 27.6 mph 39.1 mph N/A   Overcast
10:00 AM 44 °F - 39 °F 76% 30.34 in 6 mi WNW 22.4 mph - -   Overcast
10:00 AM 44.6 °F 35.5 °F 39.2 °F 81% 30.33 in 6.2 mi NNW 25.3 mph - N/A   Overcast
10:30 AM 46.4 °F 37.9 °F 39.2 °F 76% 30.33 in 6.2 mi NNW 25.3 mph - N/A   Mostly Cloudy
11:00 AM 46.4 °F 38.3 °F 39.2 °F 76% 30.36 in 6.2 mi NNW 23.0 mph - N/A   Mostly Cloudy
11:30 AM 44.6 °F 35.7 °F 39.2 °F 81% 30.36 in 6.2 mi NNW 24.2 mph - N/A   Overcast
12:00 PM 46.4 °F 38.5 °F 39.2 °F 76% 30.36 in 6.2 mi NNW 21.9 mph - N/A   Mostly Cloudy
12:30 PM 46.4 °F 38.5 °F 39.2 °F 76% 30.36 in 6.2 mi NNW 21.9 mph - N/A   Mostly Cloudy
1:00 PM 47 °F - 39 °F 65% 30.37 in 6 mi NW 20.1 mph - -   Mostly Cloudy
1:00 PM 46.4 °F 38.7 °F 39.2 °F 76% 30.36 in 6.2 mi NNW 20.7 mph - N/A   Mostly Cloudy
1:30 PM 46.4 °F 39.0 °F 39.2 °F 76% 30.36 in 6.2 mi NNW 19.6 mph - N/A   Mostly Cloudy
2:00 PM 46.4 °F 39.5 °F 39.2 °F 76% 30.36 in 6.2 mi NNW 17.3 mph - N/A   Mostly Cloudy
3:00 PM 46.4 °F 40.4 °F 39.2 °F 76% 30.36 in 6.2 mi North 13.8 mph - N/A   Mostly Cloudy
3:30 PM 48.2 °F - 39.2 °F 71% 30.36 in 6.2 mi North 13.8 mph - N/A   Mostly Cloudy
4:00 PM 46 °F - 37 °F 62% 30.38 in 6 mi NW 11.2 mph - -   Mostly Cloudy
4:00 PM 48.2 °F - 39.2 °F 71% 30.36 in 6.2 mi North 12.7 mph - N/A   Mostly Cloudy
4:30 PM 46.4 °F 41.1 °F 37.4 °F 71% 30.39 in 6.2 mi North 11.5 mph - N/A   Mostly Cloudy
5:00 PM 46.4 °F 41.5 °F 39.2 °F 76% 30.39 in 6.2 mi North 10.4 mph - N/A   Mostly Cloudy
5:30 PM 46.4 °F 41.5 °F 37.4 °F 71% 30.39 in 6.2 mi NNE 10.4 mph - N/A   Scattered Clouds
6:00 PM 44.6 °F 39.2 °F 37.4 °F 76% 30.39 in 6.2 mi NNE 10.4 mph - N/A   Scattered Clouds
6:30 PM 42.8 °F 38.0 °F 37.4 °F 81% 30.39 in 6.2 mi North 8.1 mph - N/A   Partly Cloudy
7:00 PM 43 °F - 37 °F 71% 30.41 in 6 mi North 2.2 mph - -  
7:00 PM 42.8 °F 39.3 °F 37.4 °F 81% 30.42 in - NNE 5.8 mph - N/A   Clear
7:30 PM 42.8 °F 41.1 °F 37.4 °F 81% 30.42 in - North 3.5 mph - N/A   Clear
8:00 PM 42.8 °F 40.1 °F 37.4 °F 81% 30.42 in - NNE 4.6 mph - N/A   Clear
8:30 PM 42.8 °F 41.1 °F 37.4 °F 81% 30.42 in 6.2 mi NNE 3.5 mph - N/A   Scattered Clouds
9:00 PM 41.0 °F - 37.4 °F 87% 30.42 in 6.2 mi SW 2.3 mph - N/A   Partly Cloudy
9:30 PM 41.0 °F - 37.4 °F 87% 30.42 in 6.2 mi SW 2.3 mph - N/A   Scattered Clouds
10:00 PM 40 °F - 36 °F 80% 30.44 in 6 mi Calm Calm - -  
10:00 PM 39.2 °F - 37.4 °F 93% 30.45 in - SSW 2.3 mph - N/A   Clear
10:30 PM 39.2 °F - 37.4 °F 93% 30.42 in 6.2 mi South 2.3 mph - N/A   Scattered Clouds
11:00 PM 39.2 °F 35.9 °F 37.4 °F 93% 30.42 in 6.2 mi South 4.6 mph - N/A   Mostly Cloudy
11:30 PM 41.0 °F 37.1 °F 37.4 °F 87% 30.42 in 6.2 mi SSE 5.8 mph - N/A   Mostly Cloudy